HULIANWANG DIGUI-124 (67064 NORAD) Tracking and Keplerian Element Data

This shows tracking and keplerian element data for the satellite.

Feedback or suggestion? Click here.




ElementValue
Catalog67064
NameHULIANWANG DIGUI-124
Epoch Orbit118
Epoch Day354.2015061
Epoch Year2025
RAAN340.7089
Inclination50.0035
Eccentricity0.0012092
Argument of Perigee273.4441
Mean Anonmoly86.509
Mean Motion14.25949135
Decay Rate-6.25E-06
L11 67064U 25295F 25354.20150610 -.00000625 00000+0 -19346-3 0 9990
L22 67064 50.0035 340.7089 0012092 273.4441 86.5090 14.25949135 1189



Live tracking and technical data element details for HULIANWANG DIGUI-124 (NORAD 67064). HULIANWANG DIGUI-124 can be tracked NOW for your location showing map with azimuth and elevation plus other details from your city location.







IsCatalogInMostPopularTable: catalog: 67064, numindb: 19
Update: records affected: 1



GetName: 67064 HULIANWANG DIGUI-124

Hit Count: updated at: Fri, 16 Jan 2026 09:51:10 GMT